| time (UTC) | temp F | wind direction | speed MPH | gust MPH | rain 1hr in | rain 24hr in | rain mn in | humidity % | barometer mb |
| 20260507043903 | 50 | 247 | 3.0 | 7.0 | 0.00 | 0.00 | 0.00 | 83 | |
| 20260507042403 | 50 | 247 | 2.0 | 7.0 | 0.00 | 0.00 | 0.00 | 84 | |
| 20260507040904 | 49 | 247 | 3.0 | 10.0 | 0.00 | 0.00 | 0.00 | 84 | |
| 20260507035404 | 49 | 247 | 2.0 | 7.0 | 0.00 | 0.00 | 0.00 | 85 | |
| 20260507033902 | 50 | 247 | 3.0 | 8.0 | 0.00 | 0.00 | 0.00 | 85 | |
| 20260507032402 | 50 | 247 | 2.0 | 5.0 | 0.00 | 0.00 | 0.00 | 85 | |
| 20260507030902 | 50 | 247 | 2.0 | 8.0 | 0.00 | 0.00 | 0.00 | 85 | |
| 20260507025402 | 50 | 247 | 1.0 | 5.0 | 0.00 | 0.00 | 0.00 | 85 | |
| 20260507023901 | 50 | 247 | 2.0 | 5.0 | 0.00 | 0.00 | 0.00 | 85 | |
| 20260507022402 | 50 | 247 | 2.0 | 6.0 | 0.00 | 0.00 | 0.00 | 86 | |
| 20260507020903 | 51 | 247 | 3.0 | 7.0 | 0.00 | 0.00 | 0.00 | 86 | |
| 20260507015402 | 51 | 247 | 2.0 | 7.0 | 0.00 | 0.00 | 0.00 | 86 | |
| 20260507013901 | 51 | 247 | 2.0 | 7.0 | 0.00 | 0.00 | 0.00 | 86 | |
| 20260507012401 | 51 | 247 | 3.0 | 7.0 | 0.00 | 0.00 | 0.00 | 86 | |
| 20260507010901 | 52 | 247 | 2.0 | 9.0 | 0.00 | 0.00 | 0.00 | 86 | |
| 20260507005403 | 51 | 247 | 2.0 | 6.0 | 0.00 | 0.00 | 0.00 | 85 | |
| 20260507003903 | 52 | 247 | 2.0 | 3.0 | 0.00 | 0.00 | 0.00 | 85 | |
| 20260507002403 | 52 | 270 | 1.0 | 4.0 | 0.00 | 0.00 | 0.00 | 85 | |
| 20260507000909 | 52 | 247 | 1.0 | 6.0 | 0.00 | 0.00 | 0.00 | 85 | |
| 20260506235402 | 53 | 247 | 2.0 | 7.0 | 0.00 | 0.00 | 0.00 | 85 | |
| 20260506233902 | 53 | 247 | 1.0 | 4.0 | 0.00 | 0.00 | 0.00 | 85 | |
| 20260506232402 | 53 | 247 | 2.0 | 6.0 | 0.00 | 0.00 | 0.00 | 85 | |
| 20260506230901 | 53 | 270 | 3.0 | 10.0 | 0.00 | 0.00 | 0.00 | 85 | |
| 20260506225402 | 53 | 225 | 3.0 | 10.0 | 0.00 | 0.00 | 0.00 | 85 | |
| 20260506223902 | 54 | 247 | 3.0 | 8.0 | 0.00 | 0.00 | 0.00 | 85 | |
| 20260506222403 | 54 | 247 | 3.0 | 8.0 | 0.00 | 0.00 | 0.00 | 84 | |
| 20260506220902 | 54 | 270 | 4.0 | 10.0 | 0.00 | 0.00 | 0.00 | 84 | |
| 20260506215403 | 54 | 225 | 4.0 | 10.0 | 0.00 | 0.00 | 0.00 | 84 | |
| 20260506213903 | 55 | 292 | 3.0 | 11.0 | 0.00 | 0.00 | 0.00 | 83 | |
| 20260506212404 | 55 | 0 | 3.0 | 9.0 | 0.00 | 0.00 | 0.00 | 86 | |
| 20260506210902 | 55 | 0 | 4.0 | 12.0 | 0.00 | 0.00 | 0.00 | 82 | |
| 20260506205404 | 55 | 247 | 3.0 | 10.0 | 0.00 | 0.00 | 0.00 | 81 | |
| 20260506203902 | 56 | 270 | 5.0 | 17.0 | 0.00 | 0.00 | 0.00 | 82 | |
| 20260506202404 | 56 | 247 | 6.0 | 15.0 | 0.00 | 0.00 | 0.00 | 80 | |
| 20260506200902 | 57 | 247 | 6.0 | 15.0 | 0.00 | 0.00 | 0.00 | 78 | |
| 20260506193901 | 58 | 225 | 3.0 | 7.0 | 0.00 | 0.00 | 0.00 | 62 | |
| 20260506192402 | 56 | 225 | 1.0 | 4.0 | 0.00 | 0.00 | 0.00 | 67 | |
| 20260506190902 | 57 | 225 | 0.0 | 1.0 | 0.00 | 0.00 | 0.00 | 68 | |
| 20260506183902 | 59 | 225 | 0.0 | 1.0 | 0.00 | 0.00 | 0.00 | 65 | |
| 20260506182402 | 60 | 225 | 0.0 | 1.0 | 0.00 | 0.00 | 0.00 | 62 | |
| 20260506180902 | 61 | 0 | 0.0 | 1.0 | 0.00 | 0.00 | 0.00 | 61 | |
| 20260506175402 | 62 | 225 | 0.0 | 1.0 | 0.00 | 0.00 | 0.00 | 60 | |
| 20260506173903 | 64 | 112 | 0.0 | 1.0 | 0.00 | 0.00 | 0.00 | 56 | |
| 20260506172402 | 65 | 202 | 0.0 | 0.0 | 0.00 | 0.00 | 0.00 | 55 | |
| 20260506170905 | 67 | 67 | 1.0 | 5.0 | 0.00 | 0.00 | 0.00 | 52 | |
| 20260506165403 | 69 | 45 | 2.0 | 9.0 | 0.00 | 0.00 | 0.00 | 49 | |
| 20260506163902 | 68 | 67 | 3.0 | 11.0 | 0.00 | 0.00 | 0.00 | 50 | |
| 20260506162402 | 67 | 45 | 1.0 | 5.0 | 0.00 | 0.00 | 0.00 | 51 | |
| 20260506160902 | 68 | 45 | 2.0 | 6.0 | 0.00 | 0.00 | 0.00 | 49 | |
| 20260506155402 | 68 | 225 | 2.0 | 10.0 | 0.00 | 0.00 | 0.00 | 51 | |
| 20260506153902 | 68 | 45 | 2.0 | 9.0 | 0.00 | 0.00 | 0.00 | 50 | |
| 20260506152404 | 69 | 67 | 2.0 | 9.0 | 0.00 | 0.00 | 0.00 | 51 | |
| 20260506150902 | 69 | 112 | 1.0 | 6.0 | 0.00 | 0.00 | 0.00 | 52 | |
| 20260506145405 | 68 | 225 | 1.0 | 7.0 | 0.00 | 0.00 | 0.00 | 52 | |
| 20260506143903 | 69 | 112 | 1.0 | 11.0 | 0.00 | 0.00 | 0.00 | 52 | |
| 20260506142403 | 68 | 45 | 1.0 | 6.0 | 0.00 | 0.00 | 0.00 | 52 | |
| 20260506140905 | 68 | 22 | 2.0 | 6.0 | 0.00 | 0.00 | 0.00 | 52 | |
| 20260506135403 | 68 | 22 | 2.0 | 7.0 | 0.00 | 0.00 | 0.00 | 51 | |
| 20260506133903 | 69 | 22 | 1.0 | 5.0 | 0.00 | 0.00 | 0.00 | 51 | |
| 20260506132409 | 68 | 45 | 2.0 | 8.0 | 0.00 | 0.00 | 0.00 | 51 | |
| 20260506130902 | 70 | 247 | 2.0 | 9.0 | 0.00 | 0.00 | 0.00 | 50 | |
| 20260506125402 | 68 | 225 | 2.0 | 7.0 | 0.00 | 0.00 | 0.00 | 51 | |
| 20260506123903 | 70 | 225 | 3.0 | 13.0 | 0.00 | 0.00 | 0.00 | 49 | |
| 20260506122402 | 69 | 45 | 2.0 | 6.0 | 0.00 | 0.00 | 0.00 | 50 | |
| 20260506120902 | 71 | 202 | 2.0 | 8.0 | 0.00 | 0.00 | 0.00 | 48 | |
| 20260506115401 | 69 | 90 | 1.0 | 4.0 | 0.00 | 0.00 | 0.00 | 50 | |
| 20260506113903 | 72 | 225 | 2.0 | 8.0 | 0.00 | 0.00 | 0.00 | 47 | |
| 20260506112403 | 69 | 67 | 2.0 | 8.0 | 0.00 | 0.00 | 0.00 | 50 | |
| 20260506110904 | 70 | 45 | 1.0 | 4.0 | 0.00 | 0.00 | 0.00 | 47 | |
| 20260506105403 | 69 | 225 | 2.0 | 6.0 | 0.00 | 0.00 | 0.00 | 49 | |
| 20260506103902 | 69 | 225 | 1.0 | 6.0 | 0.00 | 0.00 | 0.00 | 50 | |
| 20260506102403 | 68 | 225 | 1.0 | 4.0 | 0.00 | 0.00 | 0.00 | 52 | |
| 20260506095402 | 68 | 247 | 1.0 | 5.0 | 0.00 | 0.00 | 0.00 | 52 | |
| 20260506093902 | 68 | 225 | 1.0 | 6.0 | 0.00 | 0.00 | 0.00 | 54 | |
| 20260506092403 | 68 | 225 | 3.0 | 7.0 | 0.00 | 0.00 | 0.00 | 53 | |
| 20260506090902 | 66 | 225 | 2.0 | 5.0 | 0.00 | 0.00 | 0.00 | 55 | |
| 20260506085402 | 66 | 225 | 2.0 | 4.0 | 0.00 | 0.00 | 0.00 | 56 | |
| 20260506083901 | 66 | 225 | 2.0 | 5.0 | 0.00 | 0.00 | 0.00 | 58 | |
| 20260506082402 | 66 | 225 | 2.0 | 5.0 | 0.00 | 0.00 | 0.00 | 58 | |
| 20260506080902 | 66 | 0 | 1.0 | 2.0 | 0.00 | 0.00 | 0.00 | 59 | |
| 20260506072402 | 66 | 225 | 1.0 | 5.0 | 0.00 | 0.00 | 0.00 | 61 | |
| 20260506070903 | 66 | 225 | 2.0 | 7.0 | 0.00 | 0.00 | 0.00 | 63 | |
| 20260506062404 | 64 | 225 | 2.0 | 9.0 | 0.00 | 0.00 | 0.00 | 64 | |
| 20260506060902 | 66 | 247 | 3.0 | 7.0 | 0.00 | 0.00 | 0.00 | 63 | |
| 20260506050903 | 66 | 247 | 2.0 | 5.0 | 0.00 | 0.00 | 0.00 | 66 |